Regional Weather Roundup
Issued by NWS

Home | Current Version | Previous Version | Graphics & Text | Print | Product List | Glossary On
Versions: 1 2 3 4 5 6 7 8 9 10 11 12 13 14 15 16 17 18 19 20 21 22 23 24 25 26 27 28 29 30 31 32 33 34 35 36 37 38 39 40 41 42 43 44 45 46 47 48 49 50
000
ASUS45 KPSR 261700
RWRAZ

PRELIMINARY ARIZONA REGIONAL HOURLY WEATHER ROUNDUP
NATIONAL WEATHER SERVICE PHOENIX AZ
1000 AM MST SAT JUL 26 2014

NOTE: FAIR INDICATES FEW OR NO CLOUDS BELOW 12,000 FEET WITH NO
SIGNIFICANT WEATHER AND/OR OBSTRUCTIONS TO VISIBILITY.

AZZ001>003-036-261800-
NORTHWEST ARIZONA

CITY           SKY/WX    TMP DP  RH WIND       PRES   REMARKS
KINGMAN        SUNNY     86  61  42 SE7       30.14S
$$

AZZ004>008-015-016-018-261800-
NORTH CENTRAL ARIZONA

CITY           SKY/WX    TMP DP  RH WIND       PRES   REMARKS
GRAND CANYON   MOSUNNY   78  48  34 W9        30.38S
WILLIAMS       SUNNY     75  48  38 SW5       30.44S
PRESCOTT       MOSUNNY   80  58  46 VRB3      30.26S
FLAGSTAFF      SUNNY     78  45  30 MISG      30.39S
PAYSON         SUNNY     84  54  34 W9G16     30.26S
PAGE           CLOUDY    89  51  27 VRB3      30.17S
$$

AZZ009>014-017-261800-
NORTHEAST ARIZONA

CITY           SKY/WX    TMP DP  RH WIND       PRES   REMARKS
WINSLOW        NOT AVBL
SAINT JOHNS    SUNNY     84  48  28 VRB5      30.26F
WINDOW ROCK    SUNNY     86  42  21 VRB3      30.34S
$$

AZZ023-261800-
GREATER PHOENIX AREA

CITY           SKY/WX    TMP DP  RH WIND       PRES   REMARKS
PHOENIX        SUNNY     93  62  35 CALM      29.96S
BUCKEYE          N/A     95  61  31 W6        29.97S
GLENDALE       MOSUNNY   93  63  36 N5        29.98F
LUKE AFB       NOT AVBL
DEER VALLEY    SUNNY     92  61  35 CALM      29.99S
SCOTTSDALE     SUNNY     91  61  36 CALM      30.01S
MESA-FALCON    SUNNY     91  61  35 W9        29.99S
MESA-GATEWAY   SUNNY     91  61  35 CALM      30.01R
CHANDLER       SUNNY     91  63  38 W7        29.99R
$$

AZZ027-028-261800-
SOUTHWEST MARICOPA COUNTY AND PINAL COUNTY

CITY           SKY/WX    TMP DP  RH WIND       PRES   REMARKS
CASA GRANDE    SUNNY     90  64  43 CALM      30.00S
$$

AZZ503-504-507>509-261800-
SOUTHEAST ARIZONA

CITY           SKY/WX    TMP DP  RH WIND       PRES   REMARKS
TUCSON         SUNNY     89  59  36 SW8       30.09S
DAVIS-MONTHAN  SUNNY     87  59  38 NW8       30.07S
RYAN FIELD       N/A     90  63  40 W10G16    30.07S
NOGALES        SUNNY     83  61  47 VRB6      30.16F
SIERRA VISTA   SUNNY     85  55  35 NW13      30.21F
SAFFORD        SUNNY     93  58  30 W16G23    30.03F
$$

AZZ020-021-025-026-031-261800-
SOUTHWEST ARIZONA

CITY           SKY/WX    TMP DP  RH WIND       PRES   REMARKS
YUMA           NOT AVBL
$$

CAZ031-033-041-043-047-048-061-261800-
SOUTHERN CALIFORNIA

CITY           SKY/WX    TMP DP  RH WIND       PRES   REMARKS
DOWNTOWN L.A.  MOSUNNY   78  65  63 CALM      29.98R
L.A. AIRPORT   PTSUNNY   69  63  81 W9        30.00R HAZE
SAN DIEGO      PTSUNNY   71  64  78 VRB6      30.01R
BURBANK        MOSUNNY   80  61  52 SE9       29.98S
ONTARIO        PTSUNNY   83  59  44 VRB5      29.98S
RIVERSIDE      SUNNY     82  62  50 W7        29.98S
PALM SPRINGS   MOSUNNY   94  65  38 CALM      29.94R
EL CENTRO NAS  PTSUNNY   95  71  45 S5        29.87S HX 102
IMPERIAL       PTSUNNY   96  72  45 E7        29.86S HX 104
BLYTHE         SUNNY     98  63  31 SE6       29.90S HX 100
$$

NVZ020-UTZ003-261800-
SOUTHERN NEVADA-UTAH

CITY           SKY/WX    TMP DP  RH WIND       PRES   REMARKS
LAS VEGAS      NOT AVBL
SALT LAKE CITY MOSUNNY   83  45  26 NW6       30.15R
$$

NMZ009-TXZ055-261800-
NEW MEXICO-WEST TEXAS

CITY           SKY/WX    TMP DP  RH WIND       PRES   REMARKS
ALBUQUERQUE    MOSUNNY   85  48  27 CALM      30.21S
EL PASO        SUNNY     89  51  27 SE8       30.07F
$$


........................KEY........................
SKY/WX - SKY CONDITION/WEATHER
TMP    - TEMPERATURE IN FAHRENHEIT
DP     - DEW POINT IN FAHRENHEIT
RH     - RELATIVE HUMIDITY IN PERCENT
WIND   - DIRECTION AND SPEED IN MILES PER HOUR (MPH)
VRB    - VARIABLE WIND DIRECTION
PRES   - MEAN SEA LEVEL PRESSURE IN INCHES OF MERCURY
         F - FALLING PRESSURE   R - RISING PRESSURE
         S - STEADY PRESSURE
VSB    - VISIBILITY IN MILES
HX     - HEAT INDEX IN FAHRENHEIT
WCI    - WIND CHILL INDEX IN FAHRENHEIT
TC     - TEMPERATURE IN CELSIUS WHICH IS ALSO KNOWN AS
         TEMPERATURE IN CENTIGRADE
AFB    - AIR FORCE BASE
         LUKE AFB IS LUKE AIR FORCE BASE
         DAVIS-MONTHAN IS DAVIS-MONTHAN AIR FORCE BASE
NAS    - NAVAL AIR STATION
         EL CENTRO NAS IS EL CENTRO NAVAL AIR STATION
N/A    - NOT AVAILABLE



USA.gov is the U.S. government's official web portal to all federal, state and local government web resources and services.